Location: Cave
(41.8160°N, 12.9350°E)
Time: 21:02:36
(UTC+02:00)

ISS - Pass Details

Date: 10 July 2019
Orbit: 409 x 418 km, 51.6° (Epoch: 20 July)

Event Time Altitude Azimuth Distance (km) Brightness Sun altitude
Exits shadow 03:14:54 11° 299° (WNW) 1,418 -1.1 -20.0°
Maximum altitude 03:17:11 19° 345° (NNW) 1,041 -1.3 -19.8°
Drops below altitude 10° 03:19:40 10° 34° (NE) 1,480 0.3 -19.6°
Sets 03:22:10 0° 53° (NE) 2,341 1.3 -19.3°
